| time (UTC) | temp C | wind direction | speed KPH | gust KPH | rain 1hr cm | rain 24hr cm | rain mn cm | humidity % | barometer mb |
| 20260510171038 | 28 | 0 | 3.2 | 14.5 | 0.00 | 0.00 | 0.00 | 34 | 1012.2 |
| 20260510170539 | 27 | 186 | 4.8 | 12.9 | 0.00 | 0.00 | 0.00 | 35 | 1012.3 |
| 20260510170052 | 27 | 0 | 1.6 | 8.0 | 0.00 | 0.00 | 0.00 | 36 | 1012.3 |
| 20260510165539 | 27 | 0 | 0.0 | 11.3 | 0.00 | 0.00 | 0.00 | 38 | 1012.4 |
| 20260510165038 | 27 | 0 | 0.0 | 11.3 | 0.00 | 0.00 | 0.00 | 36 | 1012.5 |
| 20260510164550 | 27 | 225 | 4.8 | 11.3 | 0.00 | 0.00 | 0.00 | 36 | 1012.5 |
| 20260510164038 | 27 | 53 | 3.2 | 11.3 | 0.00 | 0.00 | 0.00 | 38 | 1012.5 |
| 20260510163540 | 27 | 287 | 1.6 | 11.3 | 0.00 | 0.00 | 0.00 | 38 | 1012.5 |
| 20260510163051 | 27 | 58 | 0.0 | 6.4 | 0.00 | 0.00 | 0.00 | 38 | 1012.5 |
| 20260510162539 | 27 | 95 | 1.6 | 6.4 | 0.00 | 0.00 | 0.00 | 40 | 1012.6 |
| 20260510162038 | 27 | 48 | 0.0 | 8.0 | 0.00 | 0.00 | 0.00 | 38 | 1012.6 |
| 20260510161551 | 27 | 262 | 1.6 | 8.0 | 0.00 | 0.00 | 0.00 | 38 | 1012.7 |
| 20260510161038 | 27 | 0 | 1.6 | 9.7 | 0.00 | 0.00 | 0.00 | 39 | 1012.8 |
| 20260510160539 | 27 | 76 | 1.6 | 9.7 | 0.00 | 0.00 | 0.00 | 41 | 1012.9 |
| 20260510160052 | 27 | 66 | 4.8 | 6.4 | 0.00 | 0.00 | 0.00 | 42 | 1012.9 |
| 20260510155540 | 27 | 63 | 0.0 | 6.4 | 0.00 | 0.00 | 0.00 | 41 | 1012.9 |
| 20260510155038 | 27 | 0 | 0.0 | 6.4 | 0.00 | 0.00 | 0.00 | 42 | 1012.9 |
| 20260510154554 | 26 | 113 | 1.6 | 8.0 | 0.00 | 0.00 | 0.00 | 42 | 1013.0 |
| 20260510154040 | 26 | 0 | 1.6 | 11.3 | 0.00 | 0.00 | 0.00 | 40 | 1012.9 |
| 20260510153538 | 26 | 142 | 4.8 | 11.3 | 0.00 | 0.00 | 0.00 | 44 | 1013.1 |
| 20260510153057 | 26 | 162 | 3.2 | 12.9 | 0.00 | 0.00 | 0.00 | 41 | 1013.1 |
| 20260510152539 | 26 | 190 | 4.8 | 12.9 | 0.00 | 0.00 | 0.00 | 43 | 1013.0 |
| 20260510152035 | 26 | 70 | 0.0 | 12.9 | 0.00 | 0.00 | 0.00 | 43 | 1013.0 |
| 20260510151558 | 26 | 237 | 1.6 | 12.9 | 0.00 | 0.00 | 0.00 | 42 | 1013.1 |
| 20260510151036 | 26 | 65 | 3.2 | 12.9 | 0.00 | 0.00 | 0.00 | 43 | 1013.0 |
| 20260510150539 | 26 | 0 | 3.2 | 12.9 | 0.00 | 0.00 | 0.00 | 45 | 1013.0 |
| 20260510150055 | 25 | 79 | 1.6 | 11.3 | 0.00 | 0.00 | 0.00 | 44 | 1013.0 |
| 20260510145538 | 25 | 194 | 1.6 | 9.7 | 0.00 | 0.00 | 0.00 | 43 | 1013.1 |
| 20260510145038 | 25 | 142 | 4.8 | 14.5 | 0.00 | 0.00 | 0.00 | 47 | 1013.0 |
| 20260510144553 | 24 | 65 | 1.6 | 14.5 | 0.00 | 0.00 | 0.00 | 47 | 1012.9 |
| 20260510144039 | 24 | 61 | 6.4 | 14.5 | 0.00 | 0.00 | 0.00 | 50 | 1012.9 |
| 20260510143538 | 24 | 107 | 4.8 | 11.3 | 0.00 | 0.00 | 0.00 | 51 | 1012.9 |
| 20260510143054 | 24 | 68 | 3.2 | 12.9 | 0.00 | 0.00 | 0.00 | 50 | 1012.9 |
| 20260510142537 | 23 | 66 | 6.4 | 16.1 | 0.00 | 0.00 | 0.00 | 52 | 1012.8 |
| 20260510142035 | 23 | 65 | 6.4 | 16.1 | 0.00 | 0.00 | 0.00 | 54 | 1012.8 |
| 20260510141555 | 22 | 55 | 8.0 | 14.5 | 0.00 | 0.00 | 0.00 | 54 | 1012.8 |
| 20260510141035 | 22 | 77 | 8.0 | 14.5 | 0.00 | 0.00 | 0.00 | 57 | 1012.8 |
| 20260510140535 | 22 | 65 | 6.4 | 11.3 | 0.00 | 0.00 | 0.00 | 58 | 1012.7 |
| 20260510140052 | 22 | 60 | 6.4 | 11.3 | 0.00 | 0.00 | 0.00 | 58 | 1012.8 |
| 20260510135536 | 22 | 71 | 6.4 | 11.3 | 0.00 | 0.00 | 0.00 | 61 | 1012.7 |
| 20260510135036 | 21 | 69 | 6.4 | 8.0 | 0.00 | 0.00 | 0.00 | 61 | 1012.7 |
| 20260510134555 | 21 | 78 | 4.8 | 8.0 | 0.00 | 0.00 | 0.00 | 65 | 1012.7 |
| 20260510134034 | 21 | 67 | 4.8 | 6.4 | 0.00 | 0.00 | 0.00 | 66 | 1012.8 |
| 20260510133534 | 21 | 65 | 3.2 | 4.8 | 0.00 | 0.00 | 0.00 | 66 | 1012.7 |
| 20260510133101 | 20 | 76 | 1.6 | 6.4 | 0.00 | 0.00 | 0.00 | 69 | 1012.7 |
| 20260510132534 | 20 | 67 | 3.2 | 6.4 | 0.00 | 0.00 | 0.00 | 70 | 1012.8 |
| 20260510132035 | 20 | 67 | 3.2 | 6.4 | 0.00 | 0.00 | 0.00 | 70 | 1012.7 |
| 20260510131600 | 20 | 67 | 3.2 | 6.4 | 0.00 | 0.00 | 0.00 | 70 | 1012.7 |
| 20260510131034 | 19 | 66 | 3.2 | 4.8 | 0.00 | 0.00 | 0.00 | 72 | 1012.6 |
| 20260510130537 | 19 | 69 | 1.6 | 4.8 | 0.00 | 0.00 | 0.00 | 75 | 1012.6 |
| 20260510130046 | 18 | 65 | 1.6 | 4.8 | 0.00 | 0.00 | 0.00 | 74 | 1012.8 |
| 20260510125536 | 18 | 0 | 0.0 | 0.0 | 0.00 | 0.00 | 0.00 | 77 | 1012.8 |
| 20260510125035 | 17 | 0 | 0.0 | 0.0 | 0.00 | 0.00 | 0.00 | 77 | 1012.9 |
| 20260510124545 | 17 | 0 | 0.0 | 0.0 | 0.00 | 0.00 | 0.00 | 77 | 1012.9 |
| 20260510124036 | 18 | 0 | 0.0 | 0.0 | 0.00 | 0.00 | 0.00 | 75 | 1012.9 |
| 20260510123535 | 18 | 0 | 0.0 | 0.0 | 0.00 | 0.00 | 0.00 | 76 | 1012.9 |
| 20260510123100 | 18 | 0 | 0.0 | 0.0 | 0.00 | 0.00 | 0.00 | 77 | 1012.7 |
| 20260510122535 | 18 | 0 | 0.0 | 0.0 | 0.00 | 0.00 | 0.00 | 78 | 1012.7 |
| 20260510122036 | 17 | 0 | 0.0 | 0.0 | 0.00 | 0.00 | 0.00 | 80 | 1012.6 |
| 20260510121549 | 17 | 0 | 0.0 | 0.0 | 0.00 | 0.00 | 0.00 | 81 | 1012.5 |
| 20260510121035 | 16 | 0 | 0.0 | 0.0 | 0.00 | 0.00 | 0.00 | 84 | 1012.5 |
| 20260510120534 | 16 | 0 | 0.0 | 0.0 | 0.00 | 0.00 | 0.00 | 84 | 1012.5 |
| 20260510120055 | 15 | 0 | 0.0 | 0.0 | 0.00 | 0.00 | 0.00 | 86 | 1012.5 |
| 20260510115536 | 15 | 0 | 0.0 | 0.0 | 0.00 | 0.00 | 0.00 | 87 | 1012.4 |
| 20260510115034 | 15 | 0 | 0.0 | 0.0 | 0.00 | 0.00 | 0.00 | 89 | 1012.3 |
| 20260510114554 | 14 | 0 | 0.0 | 0.0 | 0.00 | 0.00 | 0.00 | 90 | 1012.3 |
| 20260510114037 | 13 | 0 | 0.0 | 0.0 | 0.00 | 0.00 | 0.00 | 92 | 1012.2 |
| 20260510113534 | 13 | 0 | 0.0 | 0.0 | 0.00 | 0.00 | 0.00 | 93 | 1012.3 |
| 20260510113046 | 13 | 0 | 0.0 | 0.0 | 0.00 | 0.00 | 0.00 | 95 | 1012.2 |
| 20260510112535 | 12 | 0 | 0.0 | 0.0 | 0.00 | 0.00 | 0.00 | 95 | 1012.2 |
| 20260510112035 | 12 | 0 | 0.0 | 0.0 | 0.00 | 0.00 | 0.00 | 97 | 1012.1 |
| 20260510111547 | 12 | 0 | 0.0 | 0.0 | 0.00 | 0.00 | 0.00 | 97 | 1012.1 |
| 20260510111034 | 11 | 0 | 0.0 | 0.0 | 0.00 | 0.00 | 0.00 | 97 | 1012.0 |
| 20260510110535 | 11 | 0 | 0.0 | 0.0 | 0.00 | 0.00 | 0.00 | 96 | 1012.0 |
| 20260510110047 | 11 | 0 | 0.0 | 0.0 | 0.00 | 0.00 | 0.00 | 96 | 1011.9 |
| 20260510105535 | 11 | 0 | 0.0 | 0.0 | 0.00 | 0.00 | 0.00 | 96 | 1011.8 |
| 20260510105035 | 10 | 0 | 0.0 | 0.0 | 0.00 | 0.00 | 0.00 | 96 | 1011.8 |
| 20260510104547 | 10 | 0 | 0.0 | 0.0 | 0.00 | 0.00 | 0.00 | 95 | 1011.7 |
| 20260510104034 | 10 | 0 | 0.0 | 0.0 | 0.00 | 0.00 | 0.00 | 95 | 1011.7 |
| 20260510103534 | 10 | 0 | 0.0 | 0.0 | 0.00 | 0.00 | 0.00 | 95 | 1011.6 |
| 20260510103046 | 10 | 0 | 0.0 | 0.0 | 0.00 | 0.00 | 0.00 | 95 | 1011.5 |
| 20260510102534 | 10 | 0 | 0.0 | 0.0 | 0.00 | 0.00 | 0.00 | 95 | 1011.5 |
| 20260510102034 | 10 | 0 | 0.0 | 0.0 | 0.00 | 0.00 | 0.00 | 95 | 1011.5 |
| 20260510101548 | 10 | 0 | 0.0 | 0.0 | 0.00 | 0.00 | 0.00 | 95 | 1011.4 |
| 20260510101034 | 10 | 0 | 0.0 | 0.0 | 0.00 | 0.00 | 0.00 | 95 | 1011.3 |
| 20260510100534 | 10 | 0 | 0.0 | 0.0 | 0.00 | 0.00 | 0.00 | 94 | 1011.2 |
| 20260510100043 | 10 | 0 | 0.0 | 0.0 | 0.00 | 0.00 | 0.00 | 94 | 1011.2 |
| 20260510095535 | 10 | 0 | 0.0 | 0.0 | 0.00 | 0.00 | 0.00 | 94 | 1011.1 |
| 20260510095034 | 10 | 0 | 0.0 | 0.0 | 0.00 | 0.00 | 0.00 | 94 | 1011.1 |
| 20260510094548 | 10 | 0 | 0.0 | 0.0 | 0.00 | 0.00 | 0.00 | 94 | 1011.1 |
| 20260510094035 | 10 | 0 | 0.0 | 0.0 | 0.00 | 0.00 | 0.00 | 94 | 1011.0 |
| 20260510093535 | 10 | 0 | 0.0 | 0.0 | 0.00 | 0.00 | 0.00 | 94 | 1011.0 |
| 20260510093048 | 10 | 0 | 0.0 | 0.0 | 0.00 | 0.00 | 0.00 | 93 | 1011.0 |
| 20260510092538 | 10 | 0 | 0.0 | 0.0 | 0.00 | 0.00 | 0.00 | 94 | 1010.8 |
| 20260510092035 | 10 | 0 | 0.0 | 0.0 | 0.00 | 0.00 | 0.00 | 94 | 1010.9 |
| 20260510091550 | 10 | 0 | 0.0 | 0.0 | 0.00 | 0.00 | 0.00 | 94 | 1010.8 |
| 20260510091034 | 11 | 0 | 0.0 | 0.0 | 0.00 | 0.00 | 0.00 | 94 | 1010.8 |
| 20260510090535 | 11 | 0 | 0.0 | 0.0 | 0.00 | 0.00 | 0.00 | 93 | 1010.8 |
| 20260510090100 | 11 | 0 | 0.0 | 0.0 | 0.00 | 0.00 | 0.00 | 94 | 1010.8 |
| 20260510085538 | 11 | 0 | 0.0 | 0.0 | 0.00 | 0.00 | 0.00 | 94 | 1010.8 |
| 20260510085034 | 11 | 0 | 0.0 | 0.0 | 0.00 | 0.00 | 0.00 | 93 | 1010.8 |
| 20260510084545 | 11 | 0 | 0.0 | 0.0 | 0.00 | 0.00 | 0.00 | 93 | 1010.8 |
| 20260510084034 | 11 | 0 | 0.0 | 0.0 | 0.00 | 0.00 | 0.00 | 93 | 1010.7 |
| 20260510083535 | 11 | 0 | 0.0 | 0.0 | 0.00 | 0.00 | 0.00 | 94 | 1010.8 |
| 20260510083042 | 11 | 0 | 0.0 | 0.0 | 0.00 | 0.00 | 0.00 | 94 | 1010.8 |
| 20260510082536 | 11 | 0 | 0.0 | 0.0 | 0.00 | 0.00 | 0.00 | 94 | 1010.6 |
| 20260510082035 | 11 | 0 | 0.0 | 0.0 | 0.00 | 0.00 | 0.00 | 94 | 1010.7 |
| 20260510081552 | 11 | 0 | 0.0 | 0.0 | 0.00 | 0.00 | 0.00 | 94 | 1010.7 |
| 20260510081038 | 11 | 0 | 0.0 | 0.0 | 0.00 | 0.00 | 0.00 | 93 | 1010.6 |
| 20260510080538 | 11 | 0 | 0.0 | 0.0 | 0.00 | 0.00 | 0.00 | 93 | 1010.5 |
| 20260510080049 | 11 | 0 | 0.0 | 0.0 | 0.00 | 0.00 | 0.00 | 93 | 1010.5 |
| 20260510075537 | 11 | 0 | 0.0 | 0.0 | 0.00 | 0.00 | 0.00 | 93 | 1010.4 |
| 20260510075040 | 11 | 0 | 0.0 | 0.0 | 0.00 | 0.00 | 0.00 | 93 | 1010.4 |
| 20260510074547 | 11 | 0 | 0.0 | 0.0 | 0.00 | 0.00 | 0.00 | 93 | 1010.4 |
| 20260510074038 | 11 | 0 | 0.0 | 0.0 | 0.00 | 0.00 | 0.00 | 93 | 1010.3 |
| 20260510073538 | 11 | 0 | 0.0 | 0.0 | 0.00 | 0.00 | 0.00 | 93 | 1010.2 |
| 20260510073103 | 11 | 0 | 0.0 | 0.0 | 0.00 | 0.00 | 0.00 | 93 | 1010.1 |
| 20260510072538 | 12 | 0 | 0.0 | 0.0 | 0.00 | 0.00 | 0.00 | 93 | 1010.2 |
| 20260510072039 | 12 | 0 | 0.0 | 0.0 | 0.00 | 0.00 | 0.00 | 93 | 1010.1 |
| 20260510071556 | 12 | 0 | 0.0 | 0.0 | 0.00 | 0.00 | 0.00 | 93 | 1010.0 |
| 20260510071040 | 12 | 0 | 0.0 | 0.0 | 0.00 | 0.00 | 0.00 | 93 | 1010.2 |
| 20260510070542 | 12 | 0 | 0.0 | 0.0 | 0.00 | 0.00 | 0.00 | 92 | 1010.3 |
| 20260510070053 | 12 | 0 | 0.0 | 0.0 | 0.00 | 0.00 | 0.00 | 92 | 1010.2 |
| 20260510065538 | 12 | 0 | 0.0 | 0.0 | 0.00 | 0.00 | 0.00 | 92 | 1010.1 |
| 20260510065037 | 12 | 0 | 0.0 | 0.0 | 0.00 | 0.00 | 0.00 | 92 | 1010.0 |
| 20260510064555 | 12 | 0 | 0.0 | 0.0 | 0.00 | 0.00 | 0.00 | 92 | 1010.0 |
| 20260510064037 | 12 | 0 | 0.0 | 0.0 | 0.00 | 0.00 | 0.00 | 92 | 1010.1 |
| 20260510063538 | 12 | 0 | 0.0 | 0.0 | 0.00 | 0.00 | 0.00 | 92 | 1010.0 |
| 20260510063048 | 12 | 0 | 0.0 | 0.0 | 0.00 | 0.00 | 0.00 | 92 | 1010.1 |
| 20260510062538 | 12 | 0 | 0.0 | 0.0 | 0.00 | 0.00 | 0.00 | 92 | 1010.1 |
| 20260510062039 | 12 | 0 | 0.0 | 0.0 | 0.00 | 0.00 | 0.00 | 91 | 1010.1 |
| 20260510061549 | 12 | 0 | 0.0 | 0.0 | 0.00 | 0.00 | 0.00 | 91 | 1010.0 |
| 20260510061041 | 12 | 0 | 0.0 | 0.0 | 0.00 | 0.00 | 0.00 | 92 | 1010.0 |
| 20260510060538 | 12 | 0 | 0.0 | 0.0 | 0.00 | 0.00 | 0.00 | 92 | 1010.0 |
| 20260510060050 | 12 | 0 | 0.0 | 0.0 | 0.00 | 0.00 | 0.00 | 92 | 1009.9 |
| 20260510055538 | 12 | 0 | 0.0 | 0.0 | 0.00 | 0.00 | 0.00 | 91 | 1009.9 |
| 20260510055041 | 13 | 0 | 0.0 | 0.0 | 0.00 | 0.00 | 0.00 | 91 | 1009.9 |
| 20260510054544 | 13 | 0 | 0.0 | 0.0 | 0.00 | 0.00 | 0.00 | 91 | 1010.0 |
| 20260510054039 | 13 | 0 | 0.0 | 0.0 | 0.00 | 0.00 | 0.00 | 91 | 1009.9 |
| 20260510053538 | 13 | 0 | 0.0 | 0.0 | 0.00 | 0.00 | 0.00 | 91 | 1009.9 |
| 20260510053053 | 13 | 0 | 0.0 | 0.0 | 0.00 | 0.00 | 0.00 | 91 | 1009.9 |
| 20260510052538 | 13 | 0 | 0.0 | 0.0 | 0.00 | 0.00 | 0.00 | 91 | 1009.9 |
| 20260510052042 | 13 | 0 | 0.0 | 0.0 | 0.00 | 0.00 | 0.00 | 91 | 1009.8 |
| 20260510051550 | 13 | 0 | 0.0 | 0.0 | 0.00 | 0.00 | 0.00 | 90 | 1009.8 |
| 20260510051041 | 13 | 0 | 0.0 | 0.0 | 0.00 | 0.00 | 0.00 | 90 | 1009.8 |
| 20260510050537 | 13 | 0 | 0.0 | 0.0 | 0.00 | 0.00 | 0.00 | 90 | 1009.8 |
| 20260510050049 | 13 | 0 | 0.0 | 0.0 | 0.00 | 0.00 | 0.00 | 90 | 1009.8 |
| 20260510045535 | 13 | 0 | 0.0 | 0.0 | 0.00 | 0.00 | 0.00 | 90 | 1009.8 |
| 20260510045037 | 13 | 0 | 0.0 | 0.0 | 0.00 | 0.00 | 0.00 | 90 | 1009.9 |
| 20260510044551 | 13 | 0 | 0.0 | 0.0 | 0.00 | 0.00 | 0.00 | 90 | 1009.8 |
| 20260510044036 | 13 | 0 | 0.0 | 0.0 | 0.00 | 0.00 | 0.00 | 89 | 1009.8 |
| 20260510043534 | 13 | 0 | 0.0 | 0.0 | 0.00 | 0.00 | 0.00 | 88 | 1009.7 |
| 20260510043107 | 13 | 0 | 0.0 | 0.0 | 0.00 | 0.00 | 0.00 | 88 | 1009.7 |
| 20260510042537 | 13 | 0 | 0.0 | 0.0 | 0.00 | 0.00 | 0.00 | 88 | 1009.7 |
| 20260510042035 | 13 | 0 | 0.0 | 0.0 | 0.00 | 0.00 | 0.00 | 88 | 1009.7 |
| 20260510041556 | 13 | 0 | 0.0 | 0.0 | 0.00 | 0.00 | 0.00 | 89 | 1009.7 |
| 20260510041035 | 14 | 0 | 0.0 | 0.0 | 0.00 | 0.00 | 0.00 | 89 | 1009.7 |
| 20260510040536 | 14 | 0 | 0.0 | 0.0 | 0.00 | 0.00 | 0.00 | 89 | 1009.6 |
| 20260510040059 | 14 | 0 | 0.0 | 0.0 | 0.00 | 0.00 | 0.00 | 89 | 1009.6 |
| 20260510035535 | 14 | 0 | 0.0 | 0.0 | 0.00 | 0.00 | 0.00 | 88 | 1009.6 |
| 20260510035035 | 14 | 0 | 0.0 | 0.0 | 0.00 | 0.00 | 0.00 | 87 | 1009.5 |
| 20260510034549 | 14 | 0 | 0.0 | 0.0 | 0.00 | 0.00 | 0.00 | 87 | 1009.5 |
| 20260510034035 | 14 | 0 | 0.0 | 0.0 | 0.00 | 0.00 | 0.00 | 86 | 1009.6 |
| 20260510033534 | 14 | 0 | 0.0 | 0.0 | 0.00 | 0.00 | 0.00 | 86 | 1009.4 |
| 20260510033049 | 14 | 0 | 0.0 | 0.0 | 0.00 | 0.00 | 0.00 | 86 | 1009.4 |
| 20260510032536 | 14 | 0 | 0.0 | 0.0 | 0.00 | 0.00 | 0.00 | 86 | 1009.4 |
| 20260510032036 | 14 | 0 | 0.0 | 0.0 | 0.00 | 0.00 | 0.00 | 86 | 1009.4 |
| 20260510031554 | 14 | 0 | 0.0 | 0.0 | 0.00 | 0.00 | 0.00 | 86 | 1009.3 |
| 20260510031034 | 15 | 0 | 0.0 | 0.0 | 0.00 | 0.00 | 0.00 | 85 | 1009.3 |
| 20260510030535 | 15 | 0 | 0.0 | 0.0 | 0.00 | 0.00 | 0.00 | 85 | 1009.2 |
| 20260510030052 | 15 | 0 | 0.0 | 0.0 | 0.00 | 0.00 | 0.00 | 84 | 1009.2 |
| 20260510025536 | 15 | 0 | 0.0 | 0.0 | 0.00 | 0.00 | 0.00 | 84 | 1009.2 |
| 20260510025035 | 15 | 0 | 0.0 | 0.0 | 0.00 | 0.00 | 0.00 | 84 | 1009.1 |
| 20260510024544 | 15 | 0 | 0.0 | 0.0 | 0.00 | 0.00 | 0.00 | 84 | 1009.1 |
| 20260510024035 | 15 | 0 | 0.0 | 0.0 | 0.00 | 0.00 | 0.00 | 84 | 1009.0 |
| 20260510023537 | 15 | 0 | 0.0 | 0.0 | 0.00 | 0.00 | 0.00 | 83 | 1009.0 |
| 20260510023049 | 15 | 0 | 0.0 | 0.0 | 0.00 | 0.00 | 0.00 | 82 | 1008.9 |
| 20260510022535 | 16 | 0 | 0.0 | 0.0 | 0.00 | 0.00 | 0.00 | 82 | 1008.9 |
| 20260510022034 | 16 | 0 | 0.0 | 0.0 | 0.00 | 0.00 | 0.00 | 81 | 1008.9 |
| 20260510021549 | 16 | 0 | 0.0 | 0.0 | 0.00 | 0.00 | 0.00 | 81 | 1008.8 |
| 20260510021034 | 16 | 0 | 0.0 | 0.0 | 0.00 | 0.00 | 0.00 | 81 | 1008.8 |
| 20260510020537 | 16 | 0 | 0.0 | 0.0 | 0.00 | 0.00 | 0.00 | 81 | 1008.7 |
| 20260510020047 | 16 | 0 | 0.0 | 0.0 | 0.00 | 0.00 | 0.00 | 79 | 1008.7 |
| 20260510015535 | 16 | 0 | 0.0 | 0.0 | 0.00 | 0.00 | 0.00 | 76 | 1008.7 |
| 20260510015036 | 16 | 0 | 0.0 | 0.0 | 0.00 | 0.00 | 0.00 | 76 | 1008.6 |
| 20260510014547 | 17 | 0 | 0.0 | 0.0 | 0.00 | 0.00 | 0.00 | 76 | 1008.5 |
| 20260510014035 | 17 | 0 | 0.0 | 0.0 | 0.00 | 0.00 | 0.00 | 74 | 1008.3 |
| 20260510013535 | 17 | 0 | 0.0 | 0.0 | 0.00 | 0.00 | 0.00 | 75 | 1008.3 |
| 20260510013045 | 17 | 0 | 0.0 | 0.0 | 0.00 | 0.00 | 0.00 | 75 | 1008.3 |
| 20260510012535 | 17 | 0 | 0.0 | 0.0 | 0.00 | 0.00 | 0.00 | 74 | 1008.2 |
| 20260510012036 | 17 | 0 | 0.0 | 0.0 | 0.00 | 0.00 | 0.00 | 73 | 1008.1 |
| 20260510011554 | 18 | 0 | 0.0 | 0.0 | 0.00 | 0.00 | 0.00 | 73 | 1008.0 |
| 20260510011033 | 18 | 0 | 0.0 | 0.0 | 0.00 | 0.00 | 0.00 | 72 | 1008.0 |
| 20260510010534 | 18 | 0 | 0.0 | 0.0 | 0.00 | 0.00 | 0.00 | 71 | 1008.1 |
| 20260510010049 | 19 | 0 | 0.0 | 0.0 | 0.00 | 0.00 | 0.00 | 69 | 1008.0 |
| 20260510005535 | 19 | 0 | 0.0 | 0.0 | 0.00 | 0.00 | 0.00 | 66 | 1008.0 |
| 20260510005034 | 20 | 0 | 0.0 | 0.0 | 0.00 | 0.00 | 0.00 | 64 | 1007.9 |
| 20260510004550 | 20 | 0 | 0.0 | 0.0 | 0.00 | 0.00 | 0.00 | 62 | 1007.8 |
| 20260510004034 | 20 | 0 | 0.0 | 0.0 | 0.00 | 0.00 | 0.00 | 62 | 1007.7 |
| 20260510003536 | 20 | 0 | 0.0 | 0.0 | 0.00 | 0.00 | 0.00 | 62 | 1007.6 |
| 20260510003049 | 21 | 0 | 0.0 | 0.0 | 0.00 | 0.00 | 0.00 | 63 | 1007.6 |
| 20260510002533 | 21 | 0 | 0.0 | 0.0 | 0.00 | 0.00 | 0.00 | 59 | 1007.6 |
| 20260510002036 | 22 | 0 | 0.0 | 0.0 | 0.00 | 0.00 | 0.00 | 57 | 1007.5 |
| 20260510001551 | 22 | 0 | 0.0 | 0.0 | 0.00 | 0.00 | 0.00 | 55 | 1007.6 |
| 20260510001035 | 22 | 0 | 0.0 | 4.8 | 0.00 | 0.00 | 0.00 | 54 | 1007.5 |
| 20260510000535 | 22 | 0 | 0.0 | 6.4 | 0.00 | 0.00 | 0.00 | 52 | 1007.6 |
| 20260510000051 | 22 | 136 | 0.0 | 6.4 | 0.00 | 0.00 | 0.00 | 50 | 1007.4 |
| 20260509235535 | 23 | 0 | 0.0 | 3.2 | 0.00 | 0.00 | 0.00 | 50 | 1007.3 |
| 20260509235035 | 23 | 0 | 0.0 | 8.0 | 0.00 | 0.00 | 0.00 | 49 | 1007.3 |
| 20260509234547 | 23 | 170 | 0.0 | 9.7 | 0.00 | 0.00 | 0.00 | 48 | 1007.3 |
| 20260509234035 | 23 | 0 | 0.0 | 9.7 | 0.00 | 0.00 | 0.00 | 48 | 1007.3 |
| 20260509233535 | 23 | 0 | 1.6 | 9.7 | 0.00 | 0.00 | 0.00 | 48 | 1007.2 |
| 20260509233053 | 23 | 181 | 1.6 | 8.0 | 0.00 | 0.00 | 0.00 | 47 | 1007.2 |
| 20260509232535 | 23 | 0 | 1.6 | 8.0 | 0.00 | 0.00 | 0.00 | 47 | 1007.1 |
| 20260509232035 | 23 | 163 | 0.0 | 8.0 | 0.00 | 0.00 | 0.00 | 47 | 1007.2 |
| 20260509231550 | 24 | 144 | 1.6 | 6.4 | 0.00 | 0.00 | 0.00 | 46 | 1007.2 |
| 20260509231034 | 24 | 0 | 1.6 | 6.4 | 0.00 | 0.00 | 0.00 | 46 | 1007.2 |
| 20260509230537 | 24 | 0 | 1.6 | 11.3 | 0.00 | 0.00 | 0.00 | 46 | 1007.2 |
| 20260509230048 | 24 | 204 | 1.6 | 11.3 | 0.00 | 0.00 | 0.00 | 46 | 1007.2 |
| 20260509225535 | 24 | 238 | 1.6 | 11.3 | 0.00 | 0.00 | 0.00 | 46 | 1007.2 |
| 20260509225037 | 24 | 0 | 1.6 | 11.3 | 0.00 | 0.00 | 0.00 | 46 | 1007.1 |
| 20260509224557 | 24 | 184 | 1.6 | 11.3 | 0.00 | 0.00 | 0.00 | 45 | 1007.0 |
| 20260509224034 | 24 | 155 | 3.2 | 11.3 | 0.00 | 0.00 | 0.00 | 45 | 1007.0 |
| 20260509223535 | 25 | 241 | 3.2 | 8.0 | 0.00 | 0.00 | 0.00 | 45 | 1007.0 |
| 20260509223059 | 25 | 251 | 1.6 | 12.9 | 0.00 | 0.00 | 0.00 | 45 | 1007.1 |
| 20260509222538 | 24 | 0 | 1.6 | 12.9 | 0.00 | 0.00 | 0.00 | 45 | 1007.1 |
| 20260509222036 | 24 | 234 | 3.2 | 11.3 | 0.00 | 0.00 | 0.00 | 45 | 1007.2 |
| 20260509221602 | 24 | 213 | 1.6 | 11.3 | 0.00 | 0.00 | 0.00 | 45 | 1007.2 |
| 20260509221034 | 24 | 273 | 1.6 | 12.9 | 0.00 | 0.00 | 0.00 | 45 | 1007.2 |
| 20260509220534 | 24 | 244 | 3.2 | 12.9 | 0.00 | 0.00 | 0.00 | 45 | 1007.2 |
| 20260509220053 | 24 | 236 | 3.2 | 12.9 | 0.00 | 0.00 | 0.00 | 44 | 1007.1 |
| 20260509215534 | 24 | 137 | 4.8 | 14.5 | 0.00 | 0.00 | 0.00 | 44 | 1007.1 |
| 20260509215035 | 24 | 248 | 4.8 | 14.5 | 0.00 | 0.00 | 0.00 | 45 | 1007.2 |
| 20260509214554 | 24 | 235 | 1.6 | 14.5 | 0.00 | 0.00 | 0.00 | 46 | 1007.1 |
| 20260509214037 | 24 | 270 | 1.6 | 14.5 | 0.00 | 0.00 | 0.00 | 46 | 1007.2 |
| 20260509213535 | 24 | 167 | 6.4 | 14.5 | 0.00 | 0.00 | 0.00 | 45 | 1007.2 |
| 20260509213054 | 24 | 219 | 3.2 | 12.9 | 0.00 | 0.00 | 0.00 | 45 | 1007.2 |
| 20260509212534 | 24 | 264 | 4.8 | 19.3 | 0.00 | 0.00 | 0.00 | 45 | 1007.2 |
| 20260509212034 | 25 | 196 | 4.8 | 19.3 | 0.00 | 0.00 | 0.00 | 44 | 1007.1 |
| 20260509211547 | 25 | 201 | 4.8 | 16.1 | 0.00 | 0.00 | 0.00 | 44 | 1007.1 |
| 20260509211036 | 25 | 211 | 1.6 | 14.5 | 0.00 | 0.00 | 0.00 | 45 | 1007.0 |
| 20260509210537 | 25 | 242 | 3.2 | 14.5 | 0.00 | 0.00 | 0.00 | 43 | 1007.0 |
| 20260509205535 | 25 | 196 | 1.6 | 16.1 | 0.00 | 0.00 | 0.00 | 45 | 1007.0 |
| 20260509205035 | 25 | 63 | 3.2 | 16.1 | 0.00 | 0.00 | 0.00 | 46 | 1006.8 |
| 20260509204557 | 25 | 180 | 6.4 | 12.9 | 0.00 | 0.00 | 0.00 | 44 | 1006.9 |
| 20260509204035 | 26 | 221 | 1.6 | 11.3 | 0.00 | 0.00 | 0.00 | 44 | 1006.9 |
| 20260509203539 | 25 | 224 | 1.6 | 12.9 | 0.00 | 0.00 | 0.00 | 45 | 1006.9 |
| 20260509203056 | 25 | 248 | 3.2 | 16.1 | 0.00 | 0.00 | 0.00 | 45 | 1006.9 |
| 20260509202536 | 25 | 275 | 4.8 | 16.1 | 0.00 | 0.00 | 0.00 | 46 | 1006.9 |
| 20260509202035 | 25 | 234 | 3.2 | 12.9 | 0.00 | 0.00 | 0.00 | 48 | 1006.9 |
| 20260509201556 | 24 | 292 | 1.6 | 16.1 | 0.00 | 0.00 | 0.00 | 49 | 1007.0 |
| 20260509201035 | 24 | 155 | 3.2 | 17.7 | 0.00 | 0.00 | 0.00 | 49 | 1007.1 |
| 20260509200534 | 24 | 146 | 3.2 | 17.7 | 0.00 | 0.00 | 0.00 | 49 | 1007.2 |
| 20260509200059 | 24 | 241 | 4.8 | 14.5 | 0.00 | 0.00 | 0.00 | 48 | 1007.3 |
| 20260509195536 | 24 | 182 | 1.6 | 12.9 | 0.00 | 0.00 | 0.00 | 49 | 1007.4 |
| 20260509195034 | 24 | 269 | 4.8 | 12.9 | 0.00 | 0.00 | 0.00 | 47 | 1007.4 |
| 20260509194552 | 25 | 268 | 1.6 | 12.9 | 0.00 | 0.00 | 0.00 | 48 | 1007.4 |
| 20260509194037 | 24 | 0 | 1.6 | 12.9 | 0.00 | 0.00 | 0.00 | 49 | 1007.4 |
| 20260509193536 | 24 | 0 | 0.0 | 11.3 | 0.00 | 0.00 | 0.00 | 51 | 1007.7 |
| 20260509193047 | 23 | 242 | 3.2 | 14.5 | 0.00 | 0.00 | 0.00 | 52 | 1007.7 |
| 20260509192535 | 23 | 260 | 4.8 | 14.5 | 0.00 | 0.00 | 0.00 | 52 | 1007.9 |
| 20260509192035 | 23 | 276 | 1.6 | 11.3 | 0.00 | 0.00 | 0.00 | 55 | 1008.0 |
| 20260509191550 | 22 | 242 | 3.2 | 11.3 | 0.00 | 0.00 | 0.00 | 55 | 1008.1 |
| 20260509191037 | 22 | 246 | 0.0 | 9.7 | 0.00 | 0.00 | 0.00 | 54 | 1008.2 |
| 20260509190534 | 22 | 171 | 3.2 | 9.7 | 0.00 | 0.00 | 0.00 | 54 | 1008.2 |
| 20260509185535 | 23 | 279 | 3.2 | 11.3 | 0.00 | 0.00 | 0.00 | 53 | 1008.4 |
| 20260509185035 | 23 | 0 | 0.0 | 14.5 | 0.00 | 0.00 | 0.00 | 55 | 1008.4 |
| 20260509184545 | 23 | 271 | 3.2 | 14.5 | 0.00 | 0.00 | 0.00 | 54 | 1008.5 |
| 20260509184036 | 22 | 246 | 3.2 | 12.9 | 0.00 | 0.00 | 0.00 | 56 | 1008.5 |
| 20260509183536 | 22 | 263 | 1.6 | 14.5 | 0.00 | 0.00 | 0.00 | 56 | 1008.6 |
| 20260509183053 | 22 | 260 | 4.8 | 14.5 | 0.00 | 0.00 | 0.00 | 55 | 1008.8 |
| 20260509182534 | 22 | 242 | 3.2 | 14.5 | 0.00 | 0.00 | 0.00 | 55 | 1008.8 |
| 20260509182034 | 22 | 270 | 4.8 | 12.9 | 0.00 | 0.00 | 0.00 | 54 | 1008.8 |
| 20260509181559 | 22 | 132 | 3.2 | 9.7 | 0.00 | 0.00 | 0.00 | 54 | 1008.9 |
| 20260509181035 | 22 | 218 | 1.6 | 9.7 | 0.00 | 0.00 | 0.00 | 54 | 1008.9 |
| 20260509180535 | 22 | 248 | 3.2 | 9.7 | 0.00 | 0.00 | 0.00 | 54 | 1008.9 |
| 20260509180059 | 22 | 260 | 3.2 | 9.7 | 0.00 | 0.00 | 0.00 | 54 | 1009.1 |
| 20260509175535 | 22 | 182 | 0.0 | 16.1 | 0.00 | 0.00 | 0.00 | 54 | 1009.0 |
| 20260509175035 | 22 | 257 | 0.0 | 16.1 | 0.00 | 0.00 | 0.00 | 54 | 1009.1 |
| 20260509174549 | 22 | 230 | 3.2 | 12.9 | 0.00 | 0.00 | 0.00 | 54 | 1009.2 |
| 20260509174034 | 22 | 157 | 3.2 | 12.9 | 0.00 | 0.00 | 0.00 | 55 | 1009.1 |
| 20260509173535 | 22 | 265 | 3.2 | 16.1 | 0.00 | 0.00 | 0.00 | 55 | 1009.2 |
| 20260509173049 | 22 | 5 | 1.6 | 16.1 | 0.00 | 0.00 | 0.00 | 55 | 1009.2 |
| 20260509172536 | 22 | 217 | 3.2 | 16.1 | 0.00 | 0.00 | 0.00 | 54 | 1009.3 |
| 20260509172035 | 22 | 279 | 6.4 | 16.1 | 0.00 | 0.00 | 0.00 | 56 | 1009.4 |
| 20260509171548 | 22 | 257 | 6.4 | 19.3 | 0.00 | 0.00 | 0.00 | 56 | 1009.4 |